Weather Roundup
Issued by NWS Chicago, IL

Home | Current Version | Previous Version | Graphics & Text | Print | Product List | Glossary On
Versions: 1 2 3 4 5 6 7 8 9 10 11 12 13 14 15 16 17 18 19 20 21 22 23 24 25 26 27 28 29 30 31 32 33 34 35 36 37 38 39 40 41 42 43 44 45 46 47 48 49 50
000
NZUS59 KLOT 191410
HRRLOT

CHICAGO AREA WEATHER ROUNDUP
NATIONAL WEATHER SERVICE CHICAGO/ROMEOVILLE IL
800 AM CST FRI DEC 19 2014

NOTE: "FAIR" INDICATES FEW OR NO CLOUDS BELOW 12,000 FEET WITH NO
SIGNIFICANT WEATHER AND/OR OBSTRUCTIONS TO VISIBILITY.

* THESE STATIONS ARE NOT UNDER NWS QUALITY CONTROL. THEY ALSO MAY NOT
  REPORT WEATHER SUCH AS PRECIPITATION OR FOG.

ILZ005-006-012>014-019>023-191500-
NORTHEAST ILLINOIS

CITY           SKY/WX    TMP DP  RH WIND       PRES   REMARKS
OHARE          CLOUDY    28  21  75 N6        30.29S WCI  22
MIDWAY         CLOUDY    31  23  72 N7        30.29S WCI  24
AURORA         MOCLDY    27  21  78 N6        30.30R WCI  20
LANSING*       CLOUDY    29  24  82 CALM      30.29S
JOLIET*        CLOUDY    26  21  81 CALM      30.30S
WAUKEGAN       CLOUDY    26  21  81 CALM      30.29S
DUPAGE AIRPORT CLOUDY    28  22  78 N3        30.29R
WHEELING       CLOUDY    28  21  75 N8        30.31S WCI  20
KANKAKEE*      CLOUDY    25  22  89 W5        30.30S WCI  20
MORRIS*        CLEAR     18  16  93 CALM      30.29S
LEWIS AIRPORT* CLOUDY    28  22  81 N3        30.29S
NORTHERLY IS     N/A     31  22  69 N3          N/A
$$

WIZ051-052-058>065-066-070>072-191500-
SOUTHEAST WISCONSIN

CITY           SKY/WX    TMP DP  RH WIND       PRES   REMARKS
MILWAUKEE      CLOUDY    26  18  71 NW5       30.30S WCI  20
KENOSHA*       CLOUDY    27  21  78 NW6       30.29S WCI  20
RACINE*        CLOUDY    27  19  72 NW7       30.31S WCI  19
BURLINGTON     CLOUDY    25  19  80 N3        30.30R
WAUKESHA       CLOUDY    23  19  86 W3        30.30S
WEST BEND      CLOUDY    21  18  86 W3        30.29R
$$

INZ001>003-010>013-019-020-191500-
NORTHWEST INDIANA

CITY           SKY/WX    TMP DP  RH WIND       PRES   REMARKS
GARY*          CLOUDY    32  23  69 W7        30.30R WCI  26
MICHIGAN CITY* NOT AVBL
RENSSELAER*    NOT AVBL
VALPARAISO     CLOUDY    29  24  82 W5        30.28R WCI  24
$$

LMZ740>746-191500-
SOUTHERN LAKE MICHIGAN

STATION/POSITION TIME  SKY/WX   TEMP WIND        PRES    VSBY
                                AIR  DIR/SP/G
                 (UTC)          (F)  (DEG/KT/KT) (MB)    (MI)
HARRISON CRIB    1400            30  350/ 10/ 12   N/A
BURNHAM HARBOR   1400            31   10/  5/  7   N/A
CALUMET HARBOR   1400            30  280/  4/  6 1024.4S
BURNS HARBOR     NOT AVBL
MICHIGAN CITY    NOT AVBL
$$

ABBREVIATIONS USED IN REMARKS
   TC - TEMPERATURE IN CELSIUS
  WCI - WIND CHILL INDEX
   HX - HEAT INDEX
  VSB - VISIBILITY
$$


USA.gov is the U.S. government's official web portal to all federal, state and local government web resources and services.